EN

Hourly Weather Tremembe

Today, 15 April, Thursday

Time Temperature Precipitation Wind Pressure Humidity
00:00 +20°C° 0 mm 1 mps 716 mmHg 93%
01:00 +19°C° 0 mm 1 mps 716 mmHg 94%
02:00 +19°C° 0 mm 1 mps 716 mmHg 94%
03:00 +19°C° 0 mm 1 mps 715 mmHg 94%
04:00 +18°C° 0 mm 1 mps 715 mmHg 95%
05:00 +16°C° 0 mm 1 mps 715 mmHg 96%
06:00 +16°C° 0 mm 1 mps 715 mmHg 96%
07:00 +19°C° 0 mm 1 mps 716 mmHg 88%
08:00 +20°C° 0 mm 1 mps 716 mmHg 80%
09:00 +22°C° 0 mm 1 mps 717 mmHg 72%
10:00 +24°C° 0 mm 1 mps 717 mmHg 66%
11:00 +25°C° 0 mm 1 mps 716 mmHg 61%
12:00 +27°C° 0 mm 2 mps 716 mmHg 55%
13:00 +27°C° 0 mm 1 mps 715 mmHg 56%
14:00 +27°C° 0 mm 1 mps 715 mmHg 56%
15:00 +27°C° 0 mm 1 mps 714 mmHg 57%
16:00 +25°C° 0.1 mm 1 mps 714 mmHg 66%
17:00 +24°C° 0.1 mm 1 mps 714 mmHg 75%
18:00 +22°C° 0.1 mm 1 mps 714 mmHg 83%
19:00 +21°C° 0 mm 1 mps 715 mmHg 86%
20:00 +20°C° 0 mm 1 mps 715 mmHg 89%
21:00 +19°C° 0 mm 1 mps 715 mmHg 92%
22:00 +19°C° 0 mm 1 mps 715 mmHg 93%
23:00 +19°C° 0 mm 1 mps 715 mmHg 93%

Tomorrow, 16 April, Friday

Time Temperature Precipitation Wind Pressure Humidity
00:00 +18°C° 0 mm 1 mps 715 mmHg 93%
01:00 +18°C° 0 mm 1 mps 715 mmHg 94%
02:00 +16°C° 0 mm 1 mps 714 mmHg 95%
03:00 +16°C° 0 mm 1 mps 714 mmHg 96%
04:00 +16°C° 0 mm 1 mps 714 mmHg 96%
05:00 +16°C° 0 mm 1 mps 714 mmHg 96%
06:00 +15°C° 0 mm 1 mps 714 mmHg 97%
07:00 +19°C° 0 mm 1 mps 715 mmHg 88%
08:00 +21°C° 0 mm 1 mps 715 mmHg 80%
09:00 +23°C° 0 mm 1 mps 716 mmHg 72%
10:00 +25°C° 0 mm 1 mps 715 mmHg 66%
11:00 +26°C° 0 mm 1 mps 715 mmHg 60%
12:00 +28°C° 0 mm 1 mps 715 mmHg 54%
13:00 +28°C° 0.2 mm 1 mps 714 mmHg 56%
14:00 +28°C° 0.2 mm 1 mps 714 mmHg 59%
15:00 +26°C° 0.2 mm 0 mps 713 mmHg 61%
16:00 +26°C° 0.4 mm 1 mps 713 mmHg 69%
17:00 +24°C° 0.4 mm 1 mps 713 mmHg 77%
18:00 +22°C° 0.4 mm 1 mps 713 mmHg 86%
19:00 +21°C° 0 mm 1 mps 714 mmHg 88%
20:00 +20°C° 0 mm 1 mps 714 mmHg 91%
21:00 +19°C° 0 mm 1 mps 714 mmHg 93%
22:00 +19°C° 0 mm 1 mps 714 mmHg 94%
23:00 +19°C° 0 mm 1 mps 714 mmHg 94%

Day after tomorrow, 17 April, Saturday

Time Temperature Precipitation Wind Pressure Humidity
00:00 +18°C° 0 mm 1 mps 714 mmHg 94%
01:00 +18°C° 0 mm 1 mps 713 mmHg 94%
02:00 +18°C° 0 mm 1 mps 713 mmHg 94%
03:00 +18°C° 0 mm 1 mps 713 mmHg 94%
04:00 +16°C° 0 mm 1 mps 713 mmHg 94%
05:00 +16°C° 0 mm 1 mps 713 mmHg 94%
06:00 +16°C° 0 mm 1 mps 714 mmHg 94%
07:00 +19°C° 0 mm 1 mps 714 mmHg 87%
08:00 +21°C° 0 mm 1 mps 715 mmHg 80%
09:00 +23°C° 0 mm 1 mps 715 mmHg 72%
10:00 +25°C° 0 mm 1 mps 715 mmHg 65%
11:00 +27°C° 0 mm 1 mps 714 mmHg 58%
12:00 +29°C° 0 mm 1 mps 714 mmHg 51%
13:00 +28°C° 0.4 mm 1 mps 714 mmHg 56%
14:00 +28°C° 0.4 mm 1 mps 713 mmHg 61%
15:00 +27°C° 0.4 mm 1 mps 713 mmHg 66%
16:00 +25°C° 0.7 mm 1 mps 712 mmHg 74%
17:00 +24°C° 0.7 mm 1 mps 712 mmHg 81%
18:00 +22°C° 0.7 mm 1 mps 712 mmHg 89%
19:00 +21°C° 0.4 mm 1 mps 713 mmHg 91%
20:00 +21°C° 0.4 mm 1 mps 713 mmHg 92%
21:00 +20°C° 0.4 mm 1 mps 713 mmHg 94%
22:00 +20°C° 0.5 mm 1 mps 713 mmHg 95%
23:00 +19°C° 0.5 mm 1 mps 713 mmHg 95%

18 April, Sunday

Time Temperature Precipitation Wind Pressure Humidity
00:00 +19°C° 0.5 mm 1 mps 713 mmHg 96%
01:00 +19°C° 0.1 mm 1 mps 713 mmHg 96%
02:00 +19°C° 0.1 mm 1 mps 713 mmHg 96%
03:00 +19°C° 0.1 mm 1 mps 712 mmHg 97%
04:00 +19°C° 0 mm 1 mps 712 mmHg 96%
05:00 +18°C° 0 mm 1 mps 712 mmHg 96%
06:00 +18°C° 0 mm 1 mps 713 mmHg 96%
07:00 +18°C° 0 mm 0 mps 713 mmHg 91%
08:00 +20°C° 0 mm 0 mps 714 mmHg 85%
09:00 +22°C° 0 mm 0 mps 714 mmHg 79%
10:00 +25°C° 0.2 mm 1 mps 714 mmHg 74%
11:00 +26°C° 0.2 mm 1 mps 714 mmHg 69%
12:00 +28°C° 0.2 mm 1 mps 713 mmHg 64%
13:00 +27°C° 0.7 mm 1 mps 713 mmHg 68%
14:00 +27°C° 0.7 mm 1 mps 713 mmHg 72%
15:00 +26°C° 0.7 mm 1 mps 712 mmHg 75%
16:00 +25°C° 0.8 mm 1 mps 712 mmHg 82%
17:00 +23°C° 0.8 mm 1 mps 712 mmHg 88%
18:00 +21°C° 0.8 mm 1 mps 712 mmHg 94%
19:00 +21°C° 0.3 mm 1 mps 713 mmHg 95%
20:00 +20°C° 0.3 mm 1 mps 713 mmHg 97%
21:00 +20°C° 0.3 mm 1 mps 713 mmHg 98%
22:00 +18°C° 0.2 mm 0 mps 713 mmHg 98%
23:00 +18°C° 0.2 mm 0 mps 713 mmHg 98%

19 April, Monday

Time Temperature Precipitation Wind Pressure Humidity
00:00 +18°C° 0.2 mm 0 mps 713 mmHg 98%
01:00 +18°C° 0 mm 0 mps 713 mmHg 98%
02:00 +18°C° 0 mm 0 mps 713 mmHg 98%
03:00 +18°C° 0 mm 0 mps 712 mmHg 98%
04:00 +17°C° 0 mm 0 mps 712 mmHg 98%
05:00 +17°C° 0 mm 0 mps 712 mmHg 98%
06:00 +17°C° 0 mm 0 mps 713 mmHg 98%
07:00 +18°C° 0 mm 0 mps 713 mmHg 96%
08:00 +19°C° 0 mm 0 mps 713 mmHg 94%
09:00 +19°C° 0 mm 0 mps 714 mmHg 92%
10:00 +20°C° 0.2 mm 0 mps 714 mmHg 87%
11:00 +23°C° 0.2 mm 1 mps 714 mmHg 82%
12:00 +24°C° 0.2 mm 1 mps 714 mmHg 77%
13:00 +24°C° 0.4 mm 1 mps 713 mmHg 77%
14:00 +24°C° 0.4 mm 1 mps 713 mmHg 77%
15:00 +25°C° 0.4 mm 1 mps 712 mmHg 77%
16:00 +23°C° 0.6 mm 1 mps 712 mmHg 82%
17:00 +22°C° 0.6 mm 1 mps 712 mmHg 88%
18:00 +20°C° 0.6 mm 1 mps 712 mmHg 93%
19:00 +20°C° 0 mm 1 mps 713 mmHg 94%
20:00 +19°C° 0 mm 1 mps 713 mmHg 95%
21:00 +19°C° 0 mm 1 mps 713 mmHg 96%
22:00 +18°C° 0 mm 1 mps 713 mmHg 96%
23:00 +18°C° 0 mm 1 mps 713 mmHg 97%

20 April, Tuesday

Time Temperature Precipitation Wind Pressure Humidity
00:00 +18°C° 0 mm 1 mps 713 mmHg 97%
01:00 +15°C° 0 mm 0 mps 713 mmHg 97%
02:00 +15°C° 0 mm 0 mps 713 mmHg 97%
03:00 +15°C° 0 mm 0 mps 712 mmHg 97%
04:00 +14°C° 0 mm 0 mps 712 mmHg 96%
05:00 +14°C° 0 mm 0 mps 712 mmHg 96%
06:00 +14°C° 0 mm 0 mps 713 mmHg 96%
07:00 +16°C° 0 mm 0 mps 713 mmHg 90%
08:00 +18°C° 0 mm 0 mps 713 mmHg 85%
09:00 +20°C° 0 mm 0 mps 714 mmHg 79%
10:00 +23°C° 0 mm 1 mps 713 mmHg 71%
11:00 +25°C° 0 mm 2 mps 713 mmHg 63%
12:00 +27°C° 0 mm 2 mps 713 mmHg 55%
13:00 +27°C° 0 mm 2 mps 713 mmHg 55%
14:00 +27°C° 0 mm 3 mps 712 mmHg 56%
15:00 +27°C° 0 mm 3 mps 712 mmHg 56%
16:00 +25°C° 0.1 mm 2 mps 712 mmHg 66%
17:00 +23°C° 0.1 mm 2 mps 712 mmHg 76%
18:00 +20°C° 0.1 mm 2 mps 712 mmHg 87%
19:00 +20°C° 0 mm 1 mps 713 mmHg 90%
20:00 +19°C° 0 mm 1 mps 713 mmHg 94%
21:00 +18°C° 0 mm 1 mps 714 mmHg 97%
22:00 +18°C° 0 mm 1 mps 713 mmHg 97%
23:00 +18°C° 0 mm 1 mps 713 mmHg 96%
Show more

We Need Your Consent

Meteoprog and our Service Providers may store and access personal data such as cookies, device identifiers or other similar technologies on your device and process such data to personalise content and ads, as well as provide social media features and to analyse the traffic.

  • Store and/or access information on your device

    Cookies, device identifiers or other information can be stored or accessed on your device for the purposes indicated above.

  • Personalised ads and content, ad and content measurement, audience insights, and products development

    Ads and content can be personalised based on a profile. More data can be added to better personalise ads and content. Ad and content performance can be measured. Insights about the audience who saw the ads and content can be derived. Such data can be used to develop or improve user’s experience, systems and software.

By clicking ‘I Agree’ you will allow the use of indicated cookies, device identifiers, web beacons or other similar technologies. Your settings can be changed in the browser on your device.

For certain purposes, legitimate interests may be relied on, rather than consent. You can read more about this in our Privacy and Cookie Policy.